{"data":{"norad_id":68226,"epoch":"2026-09-19T21:27:26.016768Z","epoch_age_seconds":104052,"freshness":"FRESH","line1":"1 68226U 26053V   26262.89405112  .00019558  00000+0  60650-3 0  9995","line2":"2 68226  97.2858 136.7284 0001794  93.3071 266.8377 15.33448189 29961","mean_motion":15.33448189,"eccentricity":0.0001794,"inclination_deg":97.2858,"raan_deg":136.7284,"arg_perigee_deg":93.3071,"mean_anomaly_deg":266.8377,"bstar":0.0006065,"rev_number":2996,"period_min":93.906009366972,"perigee_km":464.30593175311,"apogee_km":466.76144079534,"semimajor_km":6843.6706862742,"source":"CELESTRAK","updated_at":"2026-09-20T09:00:43.836822Z"}}